User: anonymous   Login
Location: Freemans Gardens
(41.6414°N, 83.6077°W)
Time: 15:54:30
(UTC+00:00)
Language:

Okean O Rocket - Orbit

View from above orbital plane
View from above orbital plane
View from above satellite
View from above satellite

Ground track
Ground track

The orbit data is extracted from the following two-line orbital elements,

1 25861U 99039B   21018.82290175  .00000009  00000-0  87095-5 0  9991
2 25861  98.2092  31.2466 0015541 181.5677 352.0981 14.78615671159444
Epoch (UTC): 18 January 2021 19:44:58
Eccentricity: 0.0015541
inclination: 98.2092°
perigee height: 623 km
apogee height: 644 km
right ascension of ascending node: 31.2466°
argument of perigee: 181.5677°
revolutions per day: 14.78615671
mean anomaly at epoch: 352.0981°
orbit number at epoch: 15944

The dashed part of the orbit path shows where the satellite is in the earth's shadow,  

DLR